Regional Weather Roundup
Issued by NWS Goodland, KS

Home | Current Version | Previous Version | Graphics & Text | Print | Product List | Glossary On
Versions: 1 2 3 4 5 6 7 8 9 10 11 12 13 14 15 16 17 18 19 20 21 22 23 24 25 26 27 28 29 30 31 32 33 34 35 36 37 38 39 40 41 42 43 44 45 46 47 48 49 50
000
ASUS43 KGLD 181959
RWRGLD

GOODLAND FORECAST AREA HOURLY WEATHER ROUNDUP
NATIONAL WEATHER SERVICE GOODLAND KS
200 PM MDT FRI APR 18 2014

...OFFICIAL OBSERVATIONS...

CITY           SKY/WX    TMP DP  RH WIND       PRES   REMARKS
GOODLAND KS    SUNNY     72  38  29 S29       29.97F
HILL CITY KS   PTSUNNY   71  43  36 S23G32    30.05F
IMPERIAL NEB   PTSUNNY   75  38  26 S20G25    29.93F
MCCOOK NEB     MOSUNNY   71  42  35 S28G36    29.99F
AKRON CO       MOSUNNY   76  24  14 S13G24    29.93F
BURLINGTON CO  MOSUNNY   75  35  23 S20G29    29.97F
LIMON CO       SUNNY     74  27  17 SE8G18    29.98F
$$

...UNOFFICIAL OBSERVATIONS...

CITY           SKY/WX    TMP DP  RH WIND       PRES   REMARKS
COLBY KS       SUNNY     72  45  37 S26G32    30.01F
LENORA KS        N/A     69  32  25 SE25        N/A
LEOTI KS         N/A     69  32  25 S17         N/A
NORTON KS      SUNNY     66  39  37 S22G32    30.03F
SHARON SPRINGS   N/A     73  42  33 S23         N/A
WAKEENEY KS      N/A     69  39  33 MISG        N/A
KIT CARSON CO    N/A     72  41  32 MISG        N/A
$$



USA.gov is the U.S. government's official web portal to all federal, state and local government web resources and services.